"2010-02-10 00:00:00",1667799,2.326,117.4,5.816,1.126,-3.632,98.36561,-4.864,-3.591,56.25,0,109.5,13.63,-4.13,79.4
"2010-02-10 00:00:30",1667800,2.077,115.5,3.117,0.886,-4.829,98.35513,-4.89,-3.747,55.84,0,109.5,13.63,-4.16,77.5
"2010-02-10 00:01:00",1667801,2.8,119.6,5.613,1.151,-2.422,98.34211,-4.923,-3.563,55.76,0,109.5,13.64,-4.19,81.6
"2010-02-10 00:01:30",1667802,3.371,125.8,6.193,1.105,-1.224,98.33559,-4.94,-3.529,55.59,0,109.4,13.64,-4.21,87.8
"2010-02-10 00:02:00",1667803,3.335,125,5.68,1.101,-1.246,98.33503,-4.941,-3.531,55.41,0,109.5,13.64,-4.21,87.0
"2010-02-10 00:02:30",1667804,3.518,122.3,4.307,0.776,-0.754,98.33503,-4.941,-3.554,55.37,0,109.4,13.64,-4.21,84.3
"2010-02-10 00:03:00",1667805,1.785,103.8,4.292,0.912,-3.668,98.33503,-4.941,-3.659,55.37,0,109.4,13.64,-4.21,65.8
"2010-02-10 00:03:30",1667806,2.665,100,6.706,1.2,-2.36,98.33503,-4.941,-3.767,55.5,0,109.4,13.64,-4.21,62.0
"2010-02-10 00:04:00",1667807,2.272,99.7,5.188,1.087,-3.18,98.33474,-4.942,-3.708,55.85,0,109.4,13.63,-4.21,61.7
"2010-02-10 00:04:30",1667808,3.914,111.4,3.846,0.521,-0.098,98.33022,-4.954,-3.52,56.16,0,109.4,13.63,-4.22,73.4
"2010-02-10 00:05:00",1667809,3.514,113.7,5.782,1.064,-1.005,98.31974,-4.98,-3.556,56.02,0,109.4,13.63,-4.25,75.7
"2010-02-10 00:05:30",1667810,3.355,117.5,6.081,1.122,-1.712,98.30783,-5.011,-3.567,55.87,0,109.4,13.63,-4.28,79.5
"2010-02-10 00:06:00",1667811,2.731,109.9,7.442,1.234,-2.817,98.30161,-5.027,-3.779,55.48,0,109.4,13.63,-4.29,71.9
"2010-02-10 00:06:30",1667812,2.578,106.6,6.152,1.192,-2.696,98.30244,-5.024,-3.696,55.56,0,109.4,13.63,-4.29,68.6
"2010-02-10 00:07:00",1667813,2.656,107.6,6.725,1.161,-2.081,98.30244,-5.024,-3.677,55.62,0,109.4,13.63,-4.29,69.6
"2010-02-10 00:07:30",1667814,3.998,114.9,3.979,0.656,-0.334,98.30272,-5.024,-3.684,55.66,0,109.4,13.63,-4.29,76.9
"2010-02-10 00:08:00",1667815,3.518,113.6,5.358,1.101,-1.198,98.30214,-5.025,-3.648,55.73,0,109.4,13.63,-4.29,75.6
"2010-02-10 00:08:30",1667816,3.638,113.8,5.151,1.073,-1.178,98.28594,-5.066,-3.597,55.76,0,109.4,13.64,-4.33,75.8
"2010-02-10 00:09:00",1667817,2.989,110.1,4.983,1.197,-2.683,98.2746,-5.095,-3.83,55.51,0,109.4,13.64,-4.36,72.1
"2010-02-10 00:09:30",1667818,3.485,114.3,5.974,1.204,-2.065,98.27625,-5.091,-3.721,55.64,0,109.4,13.64,-4.36,76.3
"2010-02-10 00:10:00",1667819,2.74,108,3.976,1.029,-2.981,98.28294,-5.074,-3.756,55.62,0,109.4,13.64,-4.34,70.0
"2010-02-10 00:10:30",1667820,3.903,108.9,5.288,1.068,-0.297,98.2846,-5.07,-3.64,55.77,0,109.4,13.64,-4.34,70.9
"2010-02-10 00:11:00",1667821,3.92,109.4,5.33,1.063,-0.844,98.27977,-5.082,-3.699,55.82,0,109.4,13.64,-4.35,71.4
"2010-02-10 00:11:30",1667822,4.104,106,6.104,0.916,-0.847,98.26982,-5.107,-3.681,55.96,0,109.4,13.64,-4.37,68.0
"2010-02-10 00:12:00",1667823,2.886,98.8,4.731,1.059,-2.506,98.27175,-5.103,-3.762,55.99,0,109.3,13.64,-4.37,60.8
"2010-02-10 00:12:30",1667824,3.036,97.2,6.691,1.164,-2.161,98.26208,-5.127,-3.769,56.12,0,109.4,13.64,-4.39,59.2
"2010-02-10 00:13:00",1667825,3.407,100.3,6.686,1.202,-2.378,98.25925,-5.134,-3.909,56.19,0,109.4,13.64,-4.40,62.3
"2010-02-10 00:13:30",1667826,3.682,111.3,5.629,1.102,-1.093,98.25841,-5.137,-3.79,56.42,0,109.4,13.64,-4.40,73.3
"2010-02-10 00:14:00",1667827,3.887,115.2,7.273,1.078,-1.455,98.26119,-5.129,-3.751,56.44,0,109.4,13.65,-4.40,77.2
"2010-02-10 00:14:30",1667828,3.943,123.5,6.027,1.073,-1.347,98.25552,-5.144,-3.791,56.27,0,109.4,13.65,-4.41,85.5
"2010-02-10 00:15:00",1667829,3.54,120.6,6.699,1.103,-2.01,98.2365,-5.192,-3.836,56.08,0,109.4,13.65,-4.46,82.6
"2010-02-10 00:15:30",1667830,3.711,122.9,6.181,1.129,-1.454,98.23055,-5.207,-3.916,55.89,0,109.4,13.64,-4.47,84.9
"2010-02-10 00:16:00",1667831,3.191,123.8,7.403,1.222,-2.638,98.23222,-5.203,-3.961,55.8,0,109.4,13.65,-4.47,85.8
"2010-02-10 00:16:30",1667832,3.62,130.4,6.716,1.164,-1.514,98.22144,-5.231,-3.9,55.71,0,109.4,13.65,-4.50,92.4
"2010-02-10 00:17:00",1667833,4.093,131.1,5.696,1.032,-0.45,98.20444,-5.274,-3.847,55.55,0,109.4,13.65,-4.54,93.1
"2010-02-10 00:17:30",1667834,4.194,128.2,4.648,0.839,-0.121,98.19849,-5.289,-3.876,55.47,0,109.4,13.65,-4.56,90.2
"2010-02-10 00:18:00",1667835,3.757,123.3,5.431,1.124,-0.868,98.19707,-5.293,-3.909,55.52,0,109.4,13.65,-4.56,85.3
"2010-02-10 00:18:30",1667836,3.509,122,6.076,1.177,-1.472,98.17953,-5.337,-3.922,55.58,0,109.4,13.65,-4.60,84.0
"2010-02-10 00:19:00",1667837,3.459,119.5,6.84,1.194,-1.623,98.16451,-5.376,-4.129,55.34,0,109.4,13.65,-4.64,81.5
"2010-02-10 00:19:30",1667838,3.704,119.3,6.275,1.122,-1.007,98.16451,-5.376,-4.012,55.51,0,109.4,13.65,-4.64,81.3
"2010-02-10 00:20:00",1667839,3.77,117.6,5.219,1.155,-0.448,98.16026,-5.386,-3.963,55.62,0,109.4,13.65,-4.65,79.6
"2010-02-10 00:20:30",1667840,3.829,115.9,5.963,1.125,-1.02,98.14298,-5.43,-3.99,55.67,0,109.4,13.65,-4.70,77.9
"2010-02-10 00:21:00",1667841,3.834,115.9,5.935,1.085,-0.61,98.13081,-5.461,-4.039,55.74,0,109.4,13.65,-4.73,77.9
"2010-02-10 00:21:30",1667842,3.947,117,5.773,1.035,-0.332,98.13052,-5.462,-4.104,55.69,0,109.4,13.65,-4.73,79.0
"2010-02-10 00:22:00",1667843,2.944,110.5,5.422,1.107,-1.954,98.12003,-5.489,-4.108,55.77,0,109.3,13.65,-4.76,72.5
"2010-02-10 00:22:30",1667844,3.526,112.3,5.816,1.135,-0.823,98.10105,-5.537,-4.105,55.88,0,109.3,13.65,-4.80,74.3
"2010-02-10 00:23:00",1667845,3.163,112.5,6.301,1.142,-2.038,98.09819,-5.544,-4.212,55.89,0,109.3,13.65,-4.81,74.5
"2010-02-10 00:23:30",1667846,3.942,118.9,5.031,0.85,0.097,98.10399,-5.53,-4.069,56.09,0,109.3,13.65,-4.80,80.9
"2010-02-10 00:24:00",1667847,3.932,118.2,5.712,0.945,-0.164,98.08321,-5.583,-4.16,56.04,0,109.3,13.65,-4.85,80.2
"2010-02-10 00:24:30",1667848,3.454,115.7,6.113,1.132,-1.691,98.08088,-5.588,-4.246,55.99,0,109.3,13.65,-4.86,77.7
"2010-02-10 00:25:00",1667849,2.846,115,6.017,1.081,-2.573,98.08254,-5.584,-4.239,55.99,0,109.3,13.66,-4.85,77.0
"2010-02-10 00:25:30",1667850,3.394,121.6,5.742,1.173,-1.394,98.07348,-5.607,-4.209,56.01,0,109.3,13.67,-4.88,83.6
"2010-02-10 00:26:00",1667851,3.894,126.8,5.346,1.117,-0.483,98.05444,-5.656,-4.245,55.92,0,109.3,13.67,-4.92,88.8
"2010-02-10 00:26:30",1667852,4.4,129.7,3.676,0.533,0.34,98.05383,-5.657,-4.207,55.92,0,109.3,13.67,-4.93,91.7
"2010-02-10 00:27:00",1667853,4.039,128.5,5.302,0.999,-0.163,98.04979,-5.668,-4.26,55.83,0,109.3,13.67,-4.94,90.5
"2010-02-10 00:27:30",1667854,3.513,126.1,5.629,1.157,-1.097,98.03813,-5.697,-4.304,55.84,0,109.3,13.67,-4.97,88.1
"2010-02-10 00:28:00",1667855,3.277,118.2,6.344,1.174,-1.913,98.02205,-5.738,-4.465,55.82,0,109.3,13.67,-5.01,80.2
"2010-02-10 00:28:30",1667856,2.947,111.6,6.267,1.164,-2.324,98.02201,-5.738,-4.375,56.13,0,109.3,13.67,-5.01,73.6
"2010-02-10 00:29:00",1667857,3.636,109,5.602,1.102,-0.815,98.0078,-5.774,-4.387,56.38,0,109.3,13.68,-5.04,71.0
"2010-02-10 00:29:30",1667858,3.716,104,5.775,1.038,-0.407,97.99586,-5.805,-4.392,56.66,0,109.3,13.68,-5.07,66.0
"2010-02-10 00:30:00",1667859,3.828,106.2,4.777,1.02,-0.014,97.99388,-5.81,-4.415,56.99,0,109.3,13.68,-5.08,68.2
"2010-02-10 00:30:30",1667860,3.24,106,5.856,1.169,-0.875,97.9882,-5.824,-4.434,57.27,0,109.3,13.68,-5.09,68.0
"2010-02-10 00:31:00",1667861,3.125,103.2,6.937,1.152,-1.987,97.97263,-5.864,-4.517,57.44,0,109.3,13.68,-5.13,65.2
"2010-02-10 00:31:30",1667862,3.078,103.5,6.472,1.214,-2.019,97.96016,-5.896,-4.568,57.64,0,109.3,13.68,-5.16,65.5
"2010-02-10 00:32:00",1667863,3.875,110.6,6.321,1.065,-0.831,97.95704,-5.904,-4.473,57.85,0,109.3,13.68,-5.17,72.6
"2010-02-10 00:32:30",1667864,4.073,110.9,4.276,0.909,-0.317,97.93721,-5.954,-4.495,57.95,0,109.3,13.69,-5.22,72.9
"2010-02-10 00:33:00",1667865,4.328,113.1,4.927,0.733,0.267,97.92587,-5.983,-4.487,58.13,0,109.2,13.69,-5.25,75.1
"2010-02-10 00:33:30",1667866,3.587,113.3,6.308,1.165,-1.519,97.92474,-5.986,-4.665,57.99,0,109.3,13.69,-5.25,75.3
"2010-02-10 00:34:00",1667867,4.001,114.7,5.678,1.029,-1.753,97.9128,-6.016,-4.67,57.96,0,109.3,13.69,-5.29,76.7
"2010-02-10 00:34:30",1667868,3.146,115.7,6.138,1.126,-2.203,97.90247,-6.043,-4.692,57.89,0,109.3,13.69,-5.31,77.7
"2010-02-10 00:35:00",1667869,4.137,121.2,6.152,0.913,-0.484,97.90657,-6.032,-4.612,57.95,0,109.3,13.69,-5.30,83.2
"2010-02-10 00:35:30",1667870,3.809,121.9,5.252,1.023,-0.204,97.90331,-6.04,-4.59,58,0,109.3,13.7,-5.31,83.9
"2010-02-10 00:36:00",1667871,3.895,122.1,5.093,1.018,-0.325,97.8939,-6.064,-4.679,57.99,0,109.3,13.7,-5.33,84.1
"2010-02-10 00:36:30",1667872,2.366,112.1,3.047,0.724,-3.88,97.8831,-6.092,-4.825,57.95,0,109.3,13.7,-5.36,74.1
"2010-02-10 00:37:00",1667873,3.069,113.9,6.689,1.158,-2.058,97.88367,-6.09,-4.701,58.18,0,109.3,13.69,-5.36,75.9
"2010-02-10 00:37:30",1667874,3.978,117.3,4.767,1.001,-0.904,97.8774,-6.106,-4.816,58.24,0,109.3,13.69,-5.38,79.3
"2010-02-10 00:38:00",1667875,4.143,115,4.199,0.875,0.299,97.8635,-6.142,-4.684,58.53,0,109.3,13.7,-5.41,77.0
"2010-02-10 00:38:30",1667876,4.186,108.9,4.468,0.725,0.525,97.8575,-6.157,-4.713,58.65,0,109.3,13.7,-5.43,70.9
"2010-02-10 00:39:00",1667877,3.37,92.7,7.386,1.097,-0.448,97.85686,-6.159,-4.841,58.82,0,109.2,13.7,-5.43,54.7
"2010-02-10 00:39:30",1667878,2.157,80.3,6.048,0.851,-4.109,97.85714,-6.158,-4.947,59.02,0,109.2,13.7,-5.43,42.3
"2010-02-10 00:40:00",1667879,2.881,75.31,5.99,1.184,-2.472,97.84693,-6.184,-4.848,59.45,0,109.2,13.7,-5.45,37.3
"2010-02-10 00:40:30",1667880,2.435,82.2,14.47,1.157,-2.911,97.82738,-6.234,-4.893,59.73,0,109.2,13.7,-5.50,44.2
"2010-02-10 00:41:00",1667881,3.288,79.53,10.1,0.917,-1.142,97.82312,-6.245,-4.846,60.09,0,109.2,13.7,-5.51,41.5
"2010-02-10 00:41:30",1667882,3.583,68.18,5.706,0.763,-0.883,97.82312,-6.245,-4.842,60.31,0,109.2,13.7,-5.51,30.2
"2010-02-10 00:42:00",1667883,2.72,61.28,6.029,1.178,-2.591,97.81887,-6.255,-4.853,60.6,0,109.2,13.71,-5.53,23.3
"2010-02-10 00:42:30",1667884,2.673,59.9,5.843,1.178,-3.423,97.80555,-6.289,-5.086,60.67,0,109.2,13.71,-5.56,21.9
"2010-02-10 00:43:00",1667885,2.445,62.36,6.355,1.144,-4.091,97.7911,-6.326,-5.131,60.89,0,109.2,13.71,-5.60,24.4
"2010-02-10 00:43:30",1667886,2.925,76.73,12.54,1.164,-2.541,97.78911,-6.331,-4.961,61.28,0,109.2,13.71,-5.60,38.7
"2010-02-10 00:44:00",1667887,3.595,104.2,12.47,1.122,-0.658,97.78004,-6.354,-4.874,61.45,0,109.2,13.71,-5.62,66.2
"2010-02-10 00:44:30",1667888,4.144,102.1,6.602,0.92,-0.072,97.76218,-6.4,-4.949,61.27,0,109.2,13.72,-5.67,64.1
"2010-02-10 00:45:00",1667889,3.868,110.1,5.379,1.096,-0.684,97.75621,-6.415,-5.021,61.11,0,109.2,13.72,-5.69,72.1
"2010-02-10 00:45:30",1667890,2.688,105.8,4.735,0.811,-3.261,97.75896,-6.408,-5.095,60.95,0,109.2,13.72,-5.68,67.8
"2010-02-10 00:46:00",1667891,3.779,107.8,5.575,1.085,-1.793,97.75035,-6.43,-5.11,60.82,0,109.2,13.72,-5.70,69.8
"2010-02-10 00:46:30",1667892,3.871,108.3,5.689,1.121,-1.018,97.73921,-6.458,-5.025,60.82,0,109.2,13.72,-5.73,70.3
"2010-02-10 00:47:00",1667893,4.449,109.8,4.172,0.756,0.649,97.73715,-6.463,-4.997,60.83,0,109.2,13.72,-5.73,71.8
"2010-02-10 00:47:30",1667894,4.596,104.6,3.779,0.589,1.068,97.73881,-6.459,-5.015,60.84,0,109.2,13.72,-5.73,66.6
"2010-02-10 00:48:00",1667895,3.641,99.4,6.135,1.131,-1.401,97.74269,-6.449,-5.202,60.78,0,109.2,13.72,-5.72,61.4
"2010-02-10 00:48:30",1667896,2.888,96.2,5.515,1.063,-2.559,97.73098,-6.479,-5.175,60.97,0,109.2,13.72,-5.75,58.2
"2010-02-10 00:49:00",1667897,3.501,101.1,7.126,1.17,-2.019,97.71706,-6.514,-5.212,61.17,0,109.2,13.72,-5.79,63.1
"2010-02-10 00:49:30",1667898,3.436,104.8,5.774,1.191,-1.476,97.7131,-6.524,-5.144,61.37,0,109.2,13.72,-5.80,66.8
"2010-02-10 00:50:00",1667899,4.275,109.9,3.511,0.765,0.586,97.71282,-6.525,-5.09,61.49,0,109.2,13.73,-5.80,71.9
"2010-02-10 00:50:30",1667900,4.126,107.1,3.612,0.729,0.259,97.71421,-6.522,-5.153,61.49,0,109.2,13.73,-5.79,69.1
"2010-02-10 00:51:00",1667901,2.833,99.8,5.618,1.109,-2.042,97.71781,-6.512,-5.215,61.53,0,109.2,13.73,-5.78,61.8
"2010-02-10 00:51:30",1667902,3.548,103,5.127,1.123,-1.302,97.71892,-6.51,-5.219,61.66,0,109.2,13.73,-5.78,65.0
"2010-02-10 00:52:00",1667903,3.208,98.9,6.723,1.168,-2.637,97.71069,-6.531,-5.391,61.63,0,109.2,13.73,-5.80,60.9
"2010-02-10 00:52:30",1667904,3.637,102.3,5.969,1.086,-0.915,97.69394,-6.573,-5.227,61.92,0,109.2,13.73,-5.84,64.3
"2010-02-10 00:53:00",1667905,3.89,103.6,4.972,0.89,0.127,97.68771,-6.589,-5.187,62.1,0,109.2,13.73,-5.86,65.6
"2010-02-10 00:53:30",1667906,3.979,107.3,4.389,0.74,0.545,97.68656,-6.592,-5.221,62.14,0,109.2,13.73,-5.86,69.3
"2010-02-10 00:54:00",1667907,2.699,104.3,6.142,1.08,-2.218,97.68628,-6.593,-5.294,62.14,0,109.2,13.73,-5.86,66.3
"2010-02-10 00:54:30",1667908,2.739,98.8,5.746,0.974,-3.031,97.68628,-6.593,-5.311,62.16,0,109.2,13.73,-5.86,60.8
"2010-02-10 00:55:00",1667909,4.006,102.1,5.777,1.217,-1.563,97.68628,-6.593,-5.255,62.16,0,109.2,13.73,-5.86,64.1
"2010-02-10 00:55:30",1667910,4.27,103.2,5.984,1.183,-0.862,97.68571,-6.594,-5.257,62.14,0,109.2,13.73,-5.87,65.2
"2010-02-10 00:56:00",1667911,5.003,108.4,3.364,0.603,1.092,97.68486,-6.596,-5.211,62.06,0,109.2,13.73,-5.87,70.4
"2010-02-10 00:56:30",1667912,4.934,111.6,4.198,0.551,0.857,97.68345,-6.6,-5.198,61.83,0,109.3,13.73,-5.87,73.6
"2010-02-10 00:57:00",1667913,4.364,111.4,6.379,1.048,-0.245,97.6803,-6.608,-5.266,61.48,0,109.2,13.73,-5.88,73.4
"2010-02-10 00:57:30",1667914,4.479,106.2,5.927,0.991,-0.667,97.67435,-6.623,-5.35,61.25,0,109.2,13.73,-5.89,68.2
"2010-02-10 00:58:00",1667915,2.613,93.6,2.069,0.455,-3.881,97.66698,-6.642,-5.393,61.27,0,109.2,13.73,-5.91,55.6
"2010-02-10 00:58:30",1667916,4.028,99.7,5.236,1.098,-0.801,97.66384,-6.65,-5.325,61.58,0,109.2,13.74,-5.92,61.7
"2010-02-10 00:59:00",1667917,4.381,100.9,5.618,0.965,-0.309,97.65959,-6.661,-5.245,61.88,0,109.2,13.74,-5.93,62.9
"2010-02-10 00:59:30",1667918,4.457,107,4.843,0.674,0.771,97.659,-6.662,-5.22,62.09,0,109.1,13.74,-5.93,69.0
"2010-02-10 01:00:00",1667919,3.439,107.8,6.465,1.152,-1.478,97.66061,-6.658,-5.372,61.85,0,109.2,13.74,-5.93,69.8
"2010-02-10 01:00:30",1667920,2.292,99.4,2.555,0.045,-3.813,97.66753,-6.64,-5.36,61.62,0,109.2,13.77,-5.91,61.4
"2010-02-10 01:01:00",1667921,3.552,105.9,4.961,1.181,-2.128,97.67307,-6.626,-5.411,61.46,0,109.2,13.74,-5.90,67.9
"2010-02-10 01:01:30",1667922,3.937,110.6,5.401,1.011,-0.513,97.67747,-6.615,-5.286,61.48,0,109.2,13.74,-5.89,72.6
"2010-02-10 01:02:00",1667923,4.414,112.8,3.795,0.617,0.634,97.68054,-6.607,-5.249,61.39,0,109.2,13.74,-5.88,74.8
"2010-02-10 01:02:30",1667924,4.304,111.9,3.698,0.756,0.342,97.67971,-6.609,-5.301,61.23,0,109.2,13.74,-5.88,73.9
"2010-02-10 01:03:00",1667925,3.115,105.8,5.922,1.124,-2.101,97.68057,-6.607,-5.362,61.06,0,109.2,13.74,-5.88,67.8
"2010-02-10 01:03:30",1667926,2.638,101.7,5.143,0.882,-3.246,97.68337,-6.6,-5.353,61.04,0,109.2,13.74,-5.87,63.7
"2010-02-10 01:04:00",1667927,3.92,107.1,5.266,1.083,-1.001,97.68198,-6.604,-5.37,61.05,0,109.2,13.74,-5.87,69.1
"2010-02-10 01:04:30",1667928,4.088,108.8,5.696,1.041,-0.573,97.68307,-6.601,-5.307,61.26,0,109.1,13.75,-5.87,70.8
"2010-02-10 01:05:00",1667929,4.456,113.3,3.734,0.551,0.794,97.68389,-6.599,-5.225,61.47,0,109.2,13.75,-5.87,75.3
"2010-02-10 01:05:30",1667930,3.904,111.5,5.714,1.048,-0.223,97.68582,-6.594,-5.237,61.52,0,109.2,13.75,-5.87,73.5
"2010-02-10 01:06:00",1667931,3.663,113.5,5.828,1.077,-0.867,97.68863,-6.587,-5.328,61.53,0,109.1,13.75,-5.86,75.5
"2010-02-10 01:06:30",1667932,2.928,112.8,6.126,1.141,-2.315,97.68579,-6.594,-5.359,61.6,0,109.2,13.75,-5.87,74.8
"2010-02-10 01:07:00",1667933,2.747,111.1,5.487,1.123,-2.952,97.68607,-6.593,-5.415,61.54,0,109.1,13.75,-5.86,73.1
"2010-02-10 01:07:30",1667934,3.313,114.6,5.696,1.031,-0.923,97.68607,-6.593,-5.286,61.72,0,109.1,13.75,-5.86,76.6
"2010-02-10 01:08:00",1667935,3.686,116.3,3.952,0.824,0.126,97.6855,-6.595,-5.278,61.88,0,109.1,13.75,-5.87,78.3
"2010-02-10 01:08:30",1667936,3.217,111.3,5.394,1.066,-0.69,97.6855,-6.595,-5.308,61.98,0,109.1,13.76,-5.87,73.3
"2010-02-10 01:09:00",1667937,2.765,106.7,5.889,1.146,-1.427,97.6855,-6.595,-5.331,62.1,0,109.1,13.76,-5.87,68.7
"2010-02-10 01:09:30",1667938,2.394,99.9,6.68,1.222,-2.897,97.6855,-6.595,-5.492,62.05,0,109.1,13.75,-5.87,61.9
"2010-02-10 01:10:00",1667939,2.269,104.1,6.043,1.172,-2.985,97.6855,-6.595,-5.309,62.36,0,109.1,13.75,-5.87,66.1
"2010-02-10 01:10:30",1667940,2.719,112.2,6.477,1.178,-1.092,97.6855,-6.595,-5.296,62.48,0,109.1,13.75,-5.87,74.2
"2010-02-10 01:11:00",1667941,3.213,120.2,5.372,0.836,-0.793,97.6855,-6.595,-5.394,62.45,0,109.1,13.75,-5.87,82.2
"2010-02-10 01:11:30",1667942,2.401,121.3,6.559,1.171,-1.544,97.6855,-6.595,-5.285,62.62,0,109.1,13.75,-5.87,83.3
"2010-02-10 01:12:00",1667943,2.27,120.3,5.679,1.153,-2.659,97.68465,-6.597,-5.427,62.52,0,109.1,13.75,-5.87,82.3
"2010-02-10 01:12:30",1667944,2.371,122.6,7.214,1.169,-2.673,97.67671,-6.617,-5.437,62.51,0,109.1,13.75,-5.89,84.6
"2010-02-10 01:13:00",1667945,2.679,123.6,6.255,1.268,-2.33,97.66309,-6.652,-5.359,62.6,0,109.1,13.76,-5.92,85.6
"2010-02-10 01:13:30",1667946,3.115,124.6,6.252,1.167,-1.714,97.65317,-6.677,-5.355,62.48,0,109.1,13.76,-5.95,86.6
"2010-02-10 01:14:00",1667947,3.767,128.6,5.066,0.916,-0.24,97.65202,-6.68,-5.283,62.25,0,109.1,13.76,-5.95,90.6
"2010-02-10 01:14:30",1667948,3.288,130.7,6.305,1.183,-1.233,97.65147,-6.681,-5.355,61.85,0,109.1,13.76,-5.95,92.7
"2010-02-10 01:15:00",1667949,3.354,131.2,5.592,1.136,-1.279,97.65147,-6.681,-5.377,61.48,0,109.1,13.76,-5.95,93.2
"2010-02-10 01:15:30",1667950,2.898,130.3,5.987,1.112,-1.849,97.65147,-6.681,-5.39,61.17,0,109.1,13.76,-5.95,92.3
"2010-02-10 01:16:00",1667951,3.549,131.4,6.105,1.135,-0.679,97.65147,-6.681,-5.344,61,0,109.1,13.76,-5.95,93.4
"2010-02-10 01:16:30",1667952,3.738,131.6,5.461,1.084,-0.496,97.65147,-6.681,-5.365,60.85,0,109.1,13.77,-5.95,93.6
"2010-02-10 01:17:00",1667953,3.514,132,6.085,1.073,-0.514,97.65147,-6.681,-5.332,60.79,0,109.1,13.77,-5.95,94.0
"2010-02-10 01:17:30",1667954,3.601,132,5.766,0.994,-0.558,97.65147,-6.681,-5.372,60.74,0,109.1,13.77,-5.95,94.0
"2010-02-10 01:18:00",1667955,2.273,123.6,5.643,0.944,-2.88,97.65089,-6.683,-5.504,60.62,0,109.1,13.77,-5.95,85.6
"2010-02-10 01:18:30",1667956,2.937,125.5,5.574,1.192,-1.778,97.65061,-6.684,-5.41,60.76,0,109.1,13.77,-5.96,87.5
"2010-02-10 01:19:00",1667957,3.248,125.6,6.273,1.177,-1.363,97.64805,-6.69,-5.377,60.84,0,109.1,13.77,-5.96,87.6
"2010-02-10 01:19:30",1667958,3.875,129.3,3.893,0.958,0.022,97.64661,-6.694,-5.368,60.83,0,109.1,13.77,-5.97,91.3
"2010-02-10 01:20:00",1667959,3.759,126,5.299,1.032,-0.439,97.64682,-6.693,-5.362,60.8,0,109.1,13.77,-5.96,88.0
"2010-02-10 01:20:30",1667960,3.837,126,5.611,1.044,-1.015,97.64226,-6.705,-5.424,60.78,0,109.1,13.77,-5.98,88.0
"2010-02-10 01:21:00",1667961,2.386,120,4.732,0.738,-3.288,97.64256,-6.704,-5.464,60.85,0,109.1,13.77,-5.98,82.0
"2010-02-10 01:21:30",1667962,3.797,127.5,7.401,1.058,-0.959,97.64957,-6.686,-5.368,61.08,0,109.1,13.77,-5.96,89.5
"2010-02-10 01:22:00",1667963,3.859,135.9,5.126,1.089,-0.38,97.65211,-6.68,-5.403,61.04,0,109.1,13.77,-5.95,97.9
"2010-02-10 01:22:30",1667964,3.492,134.2,5.665,1.167,-0.719,97.65861,-6.663,-5.365,60.99,0,109.1,13.77,-5.93,96.2
"2010-02-10 01:23:00",1667965,3.683,137.1,6.269,1.091,-0.048,97.65918,-6.662,-5.363,60.9,0,109.1,13.77,-5.93,99.1
"2010-02-10 01:23:30",1667966,3.901,132.8,6.45,1.015,-0.557,97.66281,-6.652,-5.379,60.82,0,109.1,13.77,-5.92,94.8
"2010-02-10 01:24:00",1667967,3.231,123.8,6.391,1.126,-2.093,97.66476,-6.648,-5.483,60.69,0,109.1,13.77,-5.92,85.8
"2010-02-10 01:24:30",1667968,3.447,126.7,5.648,1.147,-1.229,97.66393,-6.65,-5.334,60.85,0,109.1,13.77,-5.92,88.7
"2010-02-10 01:25:00",1667969,3.517,131.1,5.508,1.133,-0.494,97.66781,-6.64,-5.365,60.82,0,109.1,13.77,-5.91,93.1
"2010-02-10 01:25:30",1667970,3.724,130.6,5.704,0.993,-0.057,97.66863,-6.638,-5.351,60.82,0,109.1,13.77,-5.91,92.6
"2010-02-10 01:26:00",1667971,3.745,127.2,5.369,0.951,-0.42,97.67168,-6.63,-5.345,60.83,0,109.1,13.77,-5.90,89.2
"2010-02-10 01:26:30",1667972,2.722,121.5,5.96,1.11,-2.372,97.67696,-6.616,-5.461,60.77,0,109.1,13.77,-5.89,83.5
"2010-02-10 01:27:00",1667973,3.39,117.9,6.535,1.139,-1.173,97.68082,-6.607,-5.381,60.84,0,109.1,13.77,-5.88,79.9
"2010-02-10 01:27:30",1667974,3.465,120.5,5.956,1.058,-0.71,97.68194,-6.604,-5.345,60.9,0,109.1,13.77,-5.88,82.5
"2010-02-10 01:28:00",1667975,2.961,118.8,6.014,1.147,-1.064,97.68305,-6.601,-5.354,60.93,0,109.1,13.77,-5.87,80.8
"2010-02-10 01:28:30",1667976,3.405,124.9,4.819,0.979,-0.746,97.6836,-6.6,-5.322,60.97,0,109.1,13.77,-5.87,86.9
"2010-02-10 01:29:00",1667977,3.303,123.3,6.713,1.095,-1.181,97.68443,-6.597,-5.38,60.88,0,109.1,13.77,-5.87,85.3
"2010-02-10 01:29:30",1667978,2.887,119.8,7.518,1.184,-2.042,97.68471,-6.597,-5.507,60.71,0,109.1,13.77,-5.87,81.8
"2010-02-10 01:30:00",1667979,3.1,119.7,5.827,1.188,-1.928,97.68471,-6.597,-5.393,60.74,0,109.1,13.77,-5.87,81.7
"2010-02-10 01:30:30",1667980,3.652,122.8,5.652,1.055,-0.787,97.68471,-6.597,-5.359,60.73,0,109.1,13.77,-5.87,84.8
"2010-02-10 01:31:00",1667981,3.673,121.7,5.314,1.004,-0.199,97.68471,-6.597,-5.306,60.75,0,109.1,13.78,-5.87,83.7
"2010-02-10 01:31:30",1667982,3.491,118.6,6.195,1.09,-0.533,97.68471,-6.597,-5.314,60.69,0,109.1,13.78,-5.87,80.6
"2010-02-10 01:32:00",1667983,3.638,119.6,5.704,0.998,-0.712,97.68471,-6.597,-5.363,60.63,0,109.1,13.78,-5.87,81.6
"2010-02-10 01:32:30",1667984,1.924,110.4,1.73,0.064,-4.347,97.68471,-6.597,-5.489,60.45,0,109.2,13.81,-5.87,72.4
"2010-02-10 01:33:00",1667985,3.121,116.9,7.047,1.092,-1.615,97.68471,-6.597,-5.296,60.59,0,109.1,13.78,-5.87,78.9
"2010-02-10 01:33:30",1667986,3.806,123.3,5.089,1.007,-0.598,97.68471,-6.597,-5.306,60.55,0,109.1,13.79,-5.87,85.3
"2010-02-10 01:34:00",1667987,4.182,124.3,4.636,0.668,0.43,97.68471,-6.597,-5.289,60.52,0,109.1,13.79,-5.87,86.3
"2010-02-10 01:34:30",1667988,3.712,124,5.148,1.024,-0.667,97.68471,-6.597,-5.287,60.46,0,109.1,13.79,-5.87,86.0
"2010-02-10 01:35:00",1667989,3.712,123,5.479,1.062,-1.022,97.68471,-6.597,-5.337,60.3,0,109.1,13.79,-5.87,85.0
"2010-02-10 01:35:30",1667990,3.123,118.5,6.053,1.168,-2.832,97.68471,-6.597,-5.487,60.09,0,109.1,13.79,-5.87,80.5
"2010-02-10 01:36:00",1667991,3.635,122.3,5.985,1.08,-0.948,97.68471,-6.597,-5.284,60.25,0,109.1,13.79,-5.87,84.3
"2010-02-10 01:36:30",1667992,4.004,125.8,5.421,1.019,-0.454,97.68471,-6.597,-5.279,60.19,0,109.1,13.79,-5.87,87.8
"2010-02-10 01:37:00",1667993,4.082,129,3.418,0.995,0.221,97.68471,-6.597,-5.214,60.17,0,109.1,13.79,-5.87,91.0
"2010-02-10 01:37:30",1667994,3.955,126.3,5.39,0.996,-0.485,97.68471,-6.597,-5.284,60.05,0,109.1,13.79,-5.87,88.3
"2010-02-10 01:38:00",1667995,3.29,122.1,5.697,1.13,-2.078,97.68471,-6.597,-5.348,59.94,0,109.1,13.79,-5.87,84.1
"2010-02-10 01:38:30",1667996,3.346,125.4,6.026,1.148,-2.083,97.68471,-6.597,-5.325,59.91,0,109.1,13.79,-5.87,87.4
"2010-02-10 01:39:00",1667997,4,128.3,5.1,1.076,-0.533,97.68471,-6.597,-5.316,59.85,0,109.1,13.79,-5.87,90.3
"2010-02-10 01:39:30",1667998,3.802,127.3,5.351,1.137,-0.459,97.68499,-6.596,-5.235,59.82,0,109.1,13.79,-5.87,89.3
"2010-02-10 01:40:00",1667999,4.399,130.4,4.448,0.798,0.543,97.68556,-6.595,-5.236,59.73,0,109.1,13.79,-5.87,92.4
"2010-02-10 01:40:30",1668000,4.245,130.5,3.849,0.834,0.113,97.68584,-6.594,-5.259,59.69,0,109.1,13.79,-5.87,92.5
"2010-02-10 01:41:00",1668001,4.033,127.7,5.113,1.044,-0.69,97.68613,-6.593,-5.292,59.65,0,109.1,13.79,-5.86,89.7
"2010-02-10 01:41:30",1668002,2.668,120.3,4.292,0.8,-3.384,97.68698,-6.591,-5.358,59.64,0,109.1,13.79,-5.86,82.3
"2010-02-10 01:42:00",1668003,4.028,127.8,5.461,1.049,-0.683,97.68556,-6.595,-5.29,59.76,0,109.1,13.79,-5.87,89.8
"2010-02-10 01:42:30",1668004,3.857,128.2,5.004,1.029,-0.344,97.68811,-6.588,-5.291,59.8,0,109.1,13.78,-5.86,90.2
"2010-02-10 01:43:00",1668005,4.308,129.9,3.829,0.501,0.495,97.68954,-6.584,-5.192,59.98,0,109.1,13.79,-5.86,91.9
"2010-02-10 01:43:30",1668006,3.767,131.6,4.924,1.072,-0.782,97.69067,-6.582,-5.227,60.03,0,109.1,13.78,-5.85,93.6
"2010-02-10 01:44:00",1668007,2.763,126.4,4.798,0.935,-3.183,97.69038,-6.582,-5.4,59.89,0,109.1,13.78,-5.85,88.4
"2010-02-10 01:44:30",1668008,3.231,129.9,5.996,1.175,-2.439,97.68954,-6.584,-5.345,59.85,0,109.1,13.78,-5.86,91.9